Flag for Germany Weather past 2 weeks in Oelde, North Rhine-Westphalia, Germany

Now
70 °F

Clear.


Feels Like: 70 °F
Forecast: 58 / 82 °F
Wind: 8 mph from South

Location: Paderborn / Lippstadt

Current Time: Aug 3, 2015 at 11:37:46 PM

Latest Report: Aug 3, 2015 at 10:50 PM


Visibility: 10 mi

Pressure: 29.98 "Hg

Humidity: 60%

Dew point: 55 °F

Location of OeldeLocation

Historic Weather in Oelde — Graph

°F

Oelde temperature yesterday

Maximum temperature yesterday: 75 °F (at 4:50 PM)
Minimum temperature yesterday: 50 °F (at 4:50 AM)
Average temperature yesterday: 63 °F

Past Weeks' High & Low Weather Summary

 TemperatureHumidityPressure
High86 °F (Aug 3, 3:50 PM)100% (Jul 25, 3:50 AM)30.18 "Hg (Jul 25, 3:50 AM)
Low43 °F (Jul 31, 6:20 AM)25% (Aug 3, 5:50 PM)29.53 "Hg (Jul 25, 9:50 AM)
Average62 °F68%29.90 "Hg
* Reported Jul 19 10:20 PM — Aug 3 10:20 PM, Oelde, Weather by CustomWeather, © 2015

Note: Actual official high and low records may vary slightly from our data, if they occured in-between our weather recording intervals... More about our weather records

Advertising

Oelde weather history for previous 24 hours

 ConditionsComfort  
Time TempWeatherWind HumidityBarometerVisibility
10:20 PM
Mon, Aug 3
72 °FClear.8 mph53%29.98 "Hg10 mi
9:50 PM72 °FSunny.8 mph57%29.98 "Hg10 mi
9:20 PM72 °FSunny.5 mph53%29.98 "Hg10 mi
8:50 PM79 °FSunny.5 mph39%29.95 "Hg10 mi
8:20 PM82 °FSunny.3 mph32%29.98 "Hg10 mi
7:50 PM84 °FSunny.5 mph29%29.95 "Hg10 mi
7:20 PM84 °FSunny.6 mph29%29.98 "Hg10 mi
6:50 PM84 °FPassing clouds.9 mph31%29.98 "HgN/A
6:20 PM86 °FSunny.12 mph29%29.98 "Hg10 mi
5:50 PM86 °FPassing clouds.8 mph25%29.98 "HgN/A
5:20 PM86 °FPassing clouds.9 mph27%29.98 "HgN/A
4:50 PM84 °FPassing clouds.10 mph29%29.98 "HgN/A
4:20 PM86 °FSunny.10 mph29%29.98 "Hg10 mi
3:50 PM86 °FPassing clouds.10 mph29%30.01 "HgN/A
3:20 PM84 °FPassing clouds.12 mph27%30.01 "HgN/A
2:20 PM84 °FPassing clouds.13 mph29%30.01 "HgN/A
1:50 PM82 °FSunny.13 mph28%30.01 "Hg10 mi
1:20 PM84 °FPassing clouds.12 mph27%30.01 "HgN/A
12:50 PM82 °FPassing clouds.10 mph28%30.04 "HgN/A
12:20 PM82 °FPassing clouds.9 mph26%30.04 "HgN/A
11:50 AM82 °FSunny.10 mph30%30.04 "Hg10 mi
11:20 AM81 °FPassing clouds.9 mph32%30.04 "HgN/A
10:50 AM81 °FSunny.10 mph37%30.04 "Hg10 mi
10:20 AM77 °FSunny.12 mph36%30.04 "Hg10 mi
9:50 AM75 °FPassing clouds.9 mph41%30.04 "HgN/A
9:20 AM73 °FSunny.8 mph44%30.04 "Hg10 mi
8:50 AM72 °FSunny.7 mph44%30.04 "Hg10 mi
8:20 AM70 °FSunny.8 mph46%30.04 "Hg10 mi
7:50 AM68 °FSunny.8 mph46%30.04 "Hg10 mi
7:20 AM66 °FSunny.9 mph49%30.04 "Hg10 mi
6:50 AM66 °FClear.12 mph46%30.04 "Hg10 mi
5:50 AM66 °FPassing clouds.12 mph46%30.04 "HgN/A
5:20 AM66 °FClear.12 mph46%30.04 "Hg10 mi
4:50 AM64 °FClear.9 mph49%30.04 "Hg10 mi
4:20 AM64 °FClear.9 mph52%30.07 "Hg10 mi
3:50 AM63 °FClear.5 mph52%30.07 "Hg10 mi
3:20 AM63 °FClear.6 mph52%30.07 "Hg10 mi
2:50 AM63 °FClear.6 mph52%30.07 "Hg10 mi
2:20 AM64 °FClear.7 mph49%30.07 "Hg10 mi
1:50 AM64 °FPassing clouds.6 mph46%30.07 "HgN/A
1:20 AM63 °FPassing clouds.5 mph49%30.09 "HgN/A
12:50 AM63 °FClear.2 mph52%30.09 "Hg10 mi
12:20 AM61 °FClear.2 mph59%30.09 "Hg10 mi
11:50 PM
Sun, Aug 2
61 °FClear.6 mph63%30.09 "Hg10 mi
11:20 PM63 °FClear.6 mph56%30.09 "Hg10 mi
Weather by CustomWeather, © 2015

See weather overviewHow to use our weather pages